Home   Weather   Mendrisio   Past weeks

Flag for Switzerland Past Weather in Mendrisio, Ticino, Switzerland — Yesterday and Last 2 Weeks

Now
56 °F

Cool.


Feels Like: 56 °F
Forecast: 41 / 43 °F
Wind: 3 mph from East

Location: Stabio

Current Time: Apr 25, 2017 at 6:37:25 pm

Latest Report: Apr 25, 2017 at 5:00 pm


Visibility: N/A

Pressure: 29.84 "Hg

Humidity: 86%

Dew Point: 52 °F

Location of MendrisioLocation

Past Weather in Mendrisio — Graph

°F

Mendrisio Temperature Yesterday

Maximum temperature yesterday: 56 °F (at 1:00 am)
Minimum temperature yesterday: 51 °F (at 11:00 pm)
Average temperature yesterday: 54 °F

High & Low Weather Summary for the Past Weeks

 TemperatureHumidityPressure
High74 °F (Apr 11, 5:00 pm)100% (Apr 13, 3:00 am)30.47 "Hg (Apr 13, 3:00 am)
Low28 °F (Apr 21, 7:00 am)7% (Apr 20, 5:00 pm)29.76 "Hg (Apr 13, 5:00 pm)
Average54 °F59%30.04 "Hg
* Reported Apr 10 4:00 pm — Apr 25 4:00 pm, Mendrisio, Weather by CustomWeather, © 2017

Note: Actual official high and low records may vary slightly from our data, if they occured in-between our weather recording intervals... More about our weather records

Advertising

Mendrisio Weather History for the Previous 24 Hours

Scroll right to see more
 ConditionsComfort  
Time TempWeatherWind HumidityBarometerVisibility
4:00 pm
Tue, Apr 25
56 °FCool.5 mph84%29.86 "HgN/A
3:00 pm55 °FCool.5 mph86%29.88 "HgN/A
2:00 pm55 °FCool.3 mph88%29.91 "HgN/A
1:00 pm55 °FCool.3 mph87%29.92 "HgN/A
12:00 pm53 °FCool.1 mph93%29.94 "HgN/A
11:00 am53 °FCool.3 mph91%29.95 "HgN/A
10:00 am53 °FCool.1 mph88%29.95 "HgN/A
9:00 am52 °FCool.1 mph93%29.95 "HgN/A
8:00 am51 °FCool.1 mph94%29.95 "HgN/A
7:00 am50 °FCool.No wind95%29.95 "HgN/A
6:00 am50 °FCool.1 mph96%29.96 "HgN/A
5:00 am50 °FCool.No wind95%29.97 "HgN/A
4:00 am50 °FCool.No wind95%29.98 "HgN/A
3:00 am50 °FCool.No wind95%30.00 "HgN/A
2:00 am51 °FCool.1 mph92%30.01 "HgN/A
1:00 am51 °FCool.1 mph95%30.03 "HgN/A
12:00 am51 °FCool.1 mph92%30.04 "HgN/A
11:00 pm
Mon, Apr 24
51 °FCool.1 mph92%30.06 "HgN/A
10:00 pm51 °FCool.1 mph83%30.06 "HgN/A
9:00 pm52 °FCool.No wind86%30.05 "HgN/A
8:00 pm54 °FCool.No wind82%30.05 "HgN/A
7:00 pm55 °FCool.1 mph71%30.06 "HgN/A
6:00 pm56 °FCool.1 mph70%30.06 "HgN/A
Weather by CustomWeather, © 2017

See weather overviewHow to use our weather pages